[[{"header":{"parameterUnit":"m.s-1","parameterCategory":1,"la1":30.2991,"la2":30.254,"lo1":-89.0895,"lo2":-89.0444,"dy":0.0017,"dx":0.0017,"nx":28,"ny":28,"refTime":"2024-06-07T03:00:00:Z","depth":0,"parameterNumber":2,"parameterNumberName":"U-component_of_WINDS"},"data":[0,0,0,0,0,0,0,0,0,0,0,0,0,0,0,0,0,0,0,0,0,0,0,0,0,0,0,0,0,0,0,0,0,0,0,0,0,0,0,0,0,0,0,0,0,0,0,0,0,0,0,0,0,0,0,0,0,0,-0.8968,-0.8967,0,-0.8911,-0.891,-0.891,-0.8867,-0.8867,-0.8867,-0.8866,-0.8809,-0.8808,-0.8807,0,0,0,0,0,0,0,0,0,0,0,0,0,-0.9042,-0.9041,-0.8968,-0.8967,-0.8967,-0.8911,-0.891,-0.891,-0.8867,-0.8867,-0.8866,-0.8866,-0.8809,-0.8808,-0.8807,0,0,0,0,0,0,0,0,0,0,0,0,0,-0.9,-0.9041,-0.8968,-0.8939,-0.8936,-0.8911,-0.891,-0.8909,-0.8867,-0.8867,-0.8866,-0.8866,-0.881,-0.8808,-0.8806,-0.8807,0,0,-0.8801,-0.88,0,0,0,0,0,0,0,0,-0.9003,-0.8997,-0.8944,-0.8941,-0.8937,-0.8896,-0.8915,-0.8875,-0.8868,-0.8893,-0.8866,-0.8865,-0.8838,-0.8834,-0.8825,-0.8804,-0.8802,-0.8801,-0.88,-0.8799,-0.8799,0,0,0,0,0,0,0,-0.9006,-0.9,-0.8946,-0.8943,-0.8939,-0.8929,-0.8923,-0.8908,-0.887,-0.8891,-0.8888,-0.8882,-0.8836,-0.8827,-0.8823,-0.8801,-0.8801,-0.8799,-0.8798,-0.8798,-0.8779,-0.8779,0,0,0,0,0,0,-0.9013,-0.9002,-0.8947,-0.8944,-0.8969,-0.8928,-0.8921,-0.891,-0.887,-0.8863,-0.8882,-0.888,-0.883,-0.8825,-0.8821,-0.882,-0.8799,-0.8797,-0.8796,-0.8778,-0.8779,-0.878,0,0,0,0,0,0,-0.9015,-0.9008,-0.895,-0.8972,-0.8964,-0.8928,-0.8915,-0.8909,-0.8899,-0.8863,-0.8856,-0.8879,-0.8829,-0.8823,-0.8811,-0.8817,-0.8797,-0.8795,-0.8778,-0.8778,-0.8779,-0.8817,0,0,0,0,0,0,-0.9017,-0.9009,-0.9009,-0.8973,-0.8963,-0.894,-0.8916,-0.8908,-0.8896,-0.8892,-0.8858,-0.8852,-0.8828,-0.8814,-0.8809,-0.8814,-0.8794,-0.8777,-0.8778,-0.8779,-0.8815,-0.8819,-0.8822,0,0,0,0,0,-0.902,-0.9022,-0.9009,-0.9002,-0.8961,-0.8941,-0.8935,-0.8907,-0.8896,-0.8896,-0.8873,-0.8853,-0.8817,-0.8813,-0.8807,-0.8812,-0.8776,-0.8778,-0.8779,-0.8813,-0.8818,-0.8822,0,0,0,0,0,0,-0.906,-0.9016,-0.9002,-0.8992,-0.897,-0.8933,-0.8932,-0.8913,-0.8895,-0.8892,-0.8859,-0.8852,-0.8843,-0.8826,-0.8822,-0.8811,-0.8794,-0.8794,-0.8822,-0.8826,-0.883,-0.8834,-0.8792,0,0,0,0,0,-0.9067,-0.9053,-0.9016,-0.9011,-0.9001,-0.8969,-0.8958,-0.8939,-0.8915,-0.8906,-0.8882,-0.8861,-0.8844,-0.8834,-0.8817,-0.8812,-0.8804,-0.8812,-0.8816,-0.8819,-0.882,-0.8817,-0.882,-0.8784,-0.8784,-0.8784,0,0,-0.9083,-0.9057,-0.9051,-0.9019,-0.9,-0.8987,-0.8961,-0.8948,-0.8939,-0.8904,-0.8891,-0.8873,-0.8846,-0.8838,-0.8833,-0.8823,-0.8828,-0.8821,-0.8824,-0.8823,-0.8818,-0.8822,-0.8825,-0.8784,-0.8784,-0.8784,0,0,-0.9105,-0.9084,-0.9078,-0.9059,-0.9031,-0.9009,-0.9008,-0.8974,-0.896,-0.8946,-0.8921,-0.8909,-0.8881,-0.8864,-0.8851,-0.8867,-0.8849,-0.8863,-0.8882,-0.8879,-0.8882,-0.8885,-0.8891,-0.8894,-0.8864,-0.8864,-0.8864,0,-0.9128,-0.9107,-0.9077,-0.9066,-0.9053,-0.9021,-0.9015,-0.8999,-0.8966,-0.8958,-0.8948,-0.8914,-0.8893,-0.888,-0.8885,-0.8875,-0.8873,-0.8867,-0.8884,-0.8886,-0.8888,-0.8894,-0.8896,-0.8866,-0.8865,-0.8865,-0.8865,0,-0.9137,-0.9124,-0.9122,-0.9091,-0.9078,-0.907,-0.9039,-0.9029,-0.9011,-0.8991,-0.8978,-0.8952,-0.893,-0.8925,-0.8907,-0.891,-0.8905,-0.889,-0.8873,-0.8894,-0.8899,-0.8901,-0.8868,-0.8868,-0.8867,-0.8867,0,0,-0.9183,-0.9136,-0.9136,-0.9122,-0.9089,-0.9078,-0.9068,-0.9046,-0.9039,-0.9018,-0.9009,-0.8987,-0.8973,-0.8959,-0.8939,-0.8936,-0.8951,-0.8921,-0.892,-0.8928,-0.8953,-0.8966,-0.8969,-0.8939,-0.8939,-0.8939,-0.8956,0,-0.92,-0.9181,-0.9154,-0.9144,-0.9131,-0.9101,-0.9093,-0.9072,-0.9052,-0.9039,-0.9018,-0.9003,-0.8985,-0.8977,-0.8973,-0.895,-0.8956,-0.8949,-0.8931,-0.8931,-0.8939,-0.8971,-0.8983,-0.9001,-0.8958,-0.8958,-0.8958,0,-0.9218,-0.9198,-0.9187,-0.9155,-0.9149,-0.9142,-0.912,-0.9107,-0.9083,-0.9069,-0.9054,-0.9032,-0.9021,-0.9006,-0.899,-0.8986,-0.8977,-0.8965,-0.8965,-0.8963,-0.8946,-0.897,-0.9005,-0.9008,-0.8961,-0.896,-0.896,0,-0.9253,-0.9224,-0.9214,-0.9203,-0.9165,-0.9161,-0.9145,-0.912,-0.9109,-0.909,-0.9082,-0.9062,-0.9052,-0.9037,-0.901,-0.9001,-0.8998,-0.898,-0.8987,-0.8988,-0.8988,-0.8989,-0.9023,-0.8982,-0.8982,-0.8982,-0.8982,0,-0.9275,-0.927,-0.9229,-0.9223,-0.9216,-0.9185,-0.918,-0.9161,-0.9139,-0.9129,-0.9102,-0.9093,-0.9059,-0.9046,-0.9025,-0.9016,-0.9012,-0.9001,-0.8995,-0.9003,-0.9005,-0.8998,-0.8996,-0.8982,-0.8982,-0.8982,-0.8982,0,-0.9314,-0.9286,-0.9273,-0.9239,-0.923,-0.9227,-0.9197,-0.919,-0.917,-0.9158,-0.9153,-0.9121,-0.9105,-0.9077,-0.9052,-0.9039,-0.9034,-0.9024,-0.9042,-0.9039,-0.9048,-0.9048,-0.9079,-0.9082,-0.9039,-0.9039,-0.9039,0,-0.933,-0.9325,-0.929,-0.9282,-0.9267,-0.9253,-0.9242,-0.9211,-0.9201,-0.9173,-0.917,-0.9151,-0.9135,-0.9111,-0.9085,-0.9067,-0.9057,-0.9069,-0.9054,-0.9063,-0.9058,-0.9059,-0.9059,-0.9073,-0.9074,-0.9074,-0.9075,0,-0.9362,-0.9349,-0.9333,-0.9313,-0.93,-0.9283,-0.9264,-0.9258,-0.9224,-0.9213,-0.9196,-0.9184,-0.9159,-0.9142,-0.912,-0.9104,-0.9084,-0.908,-0.908,-0.9089,-0.91,-0.9095,-0.9052,-0.9079,-0.9079,-0.9078,-0.9078,-0.9078,-0.9391,-0.9385,-0.936,-0.9344,-0.9326,-0.931,-0.9302,-0.928,-0.9266,-0.9243,-0.9226,-0.9211,-0.9187,-0.9156,-0.9141,-0.9129,-0.9119,-0.912,-0.9121,-0.9122,-0.9125,-0.9101,-0.9124,-0.9124,-0.9124,-0.9124,-0.9124,0,-0.9422,-0.9405,-0.939,-0.9365,-0.9352,-0.9334,-0.9312,-0.9303,-0.929,-0.9269,-0.9254,-0.9235,-0.9218,-0.9191,-0.9172,-0.9168,-0.9158,-0.9164,-0.9164,-0.9161,-0.9134,-0.9136,-0.9172,-0.9172,-0.9172,-0.9172,-0.9172,-0.9172,-0.9437,-0.9427,-0.9411,-0.9393,-0.9375,-0.936,-0.9349,-0.9334,-0.9317,-0.9297,-0.9283,-0.9266,-0.9243,-0.9222,-0.9206,-0.9199,-0.9193,-0.9202,-0.9192,-0.9167,-0.9163,-0.9159,-0.916,-0.9201,-0.9201,-0.922,-0.922,-0.922]},{"header":{"parameterUnit":"m.s-1","parameterCategory":1,"la1":30.2991,"la2":30.254,"lo1":-89.0895,"lo2":-89.0444,"dy":0.0017,"dx":0.0017,"nx":28,"ny":28,"refTime":"2024-06-07T03:00:00:Z","depth":0,"parameterNumber":3,"parameterNumberName":"V-component_of_WINDS"},"data":[0,0,0,0,0,0,0,0,0,0,0,0,0,0,0,0,0,0,0,0,0,0,0,0,0,0,0,0,0,0,0,0,0,0,0,0,0,0,0,0,0,0,0,0,0,0,0,0,0,0,0,0,0,0,0,0,0,0,-2.4335,-2.4335,0,-2.4376,-2.4377,-2.4377,-2.4363,-2.4362,-2.4361,-2.436,-2.4401,-2.4402,-2.4404,0,0,0,0,0,0,0,0,0,0,0,0,0,-2.4241,-2.4243,-2.4335,-2.4335,-2.4336,-2.4376,-2.4377,-2.4377,-2.4363,-2.4362,-2.4361,-2.436,-2.44,-2.4402,-2.4405,0,0,0,0,0,0,0,0,0,0,0,0,0,-2.4282,-2.4244,-2.4334,-2.4333,-2.4334,-2.4376,-2.4377,-2.4378,-2.4363,-2.4362,-2.4361,-2.4359,-2.4399,-2.4402,-2.4405,-2.445,0,0,-2.4414,-2.4415,0,0,0,0,0,0,0,0,-2.428,-2.4286,-2.4333,-2.4334,-2.4334,-2.4363,-2.4359,-2.4402,-2.4364,-2.4352,-2.436,-2.4359,-2.4389,-2.4393,-2.4403,-2.4452,-2.4454,-2.4414,-2.4416,-2.4417,-2.4418,0,0,0,0,0,0,0,-2.4277,-2.4284,-2.4351,-2.4334,-2.4334,-2.4331,-2.4335,-2.4367,-2.4378,-2.4353,-2.4352,-2.4357,-2.4389,-2.4401,-2.4404,-2.4454,-2.4414,-2.4416,-2.4418,-2.4419,-2.4544,-2.4545,0,0,0,0,0,0,-2.4274,-2.4281,-2.435,-2.4352,-2.4303,-2.4333,-2.4338,-2.4355,-2.4377,-2.4379,-2.4359,-2.4357,-2.4396,-2.4401,-2.4406,-2.4462,-2.4417,-2.442,-2.4421,-2.4542,-2.4544,-2.4546,0,0,0,0,0,0,-2.4272,-2.428,-2.4348,-2.4317,-2.4325,-2.4336,-2.4356,-2.4357,-2.4368,-2.4381,-2.4383,-2.4369,-2.4396,-2.4402,-2.444,-2.4463,-2.4421,-2.4423,-2.454,-2.4543,-2.4545,-2.4573,0,0,0,0,0,0,-2.427,-2.428,-2.4297,-2.4317,-2.4327,-2.4382,-2.4357,-2.4359,-2.4374,-2.4372,-2.4391,-2.4393,-2.4395,-2.4436,-2.4443,-2.4466,-2.4426,-2.4538,-2.4541,-2.4544,-2.457,-2.4576,-2.4581,0,0,0,0,0,-2.4266,-2.4302,-2.4298,-2.4307,-2.4349,-2.4383,-2.4389,-2.4391,-2.4376,-2.4393,-2.4402,-2.4393,-2.4459,-2.444,-2.4447,-2.4472,-2.4537,-2.454,-2.4544,-2.4567,-2.4575,-2.4581,0,0,0,0,0,0,-2.4283,-2.4305,-2.43,-2.4344,-2.4362,-2.4381,-2.4403,-2.4398,-2.442,-2.4417,-2.4417,-2.4422,-2.4462,-2.447,-2.4448,-2.4518,-2.4496,-2.4501,-2.4511,-2.4518,-2.4523,-2.4521,-2.4428,0,0,0,0,0,-2.4292,-2.4319,-2.4336,-2.4373,-2.4382,-2.4391,-2.4406,-2.4406,-2.4425,-2.4432,-2.4443,-2.4461,-2.4486,-2.4502,-2.4525,-2.4571,-2.4576,-2.4592,-2.4597,-2.4602,-2.4606,-2.4633,-2.4641,-2.4557,-2.4557,-2.4557,0,0,-2.4311,-2.4326,-2.4343,-2.4377,-2.4391,-2.4419,-2.4398,-2.4427,-2.4448,-2.4436,-2.4474,-2.4483,-2.4502,-2.4545,-2.4564,-2.4553,-2.463,-2.4606,-2.461,-2.4612,-2.4637,-2.4645,-2.4652,-2.456,-2.4559,-2.4559,0,0,-2.4359,-2.4373,-2.4406,-2.4421,-2.4443,-2.4449,-2.4457,-2.4477,-2.4483,-2.4521,-2.4513,-2.4537,-2.458,-2.4595,-2.4608,-2.4664,-2.4657,-2.4671,-2.47,-2.4726,-2.4733,-2.4738,-2.476,-2.4767,-2.4676,-2.4676,-2.4676,0,-2.4379,-2.4421,-2.4424,-2.4455,-2.4471,-2.4463,-2.4497,-2.4511,-2.4539,-2.455,-2.4537,-2.4592,-2.4604,-2.4651,-2.4665,-2.4676,-2.4685,-2.4669,-2.4732,-2.4737,-2.4743,-2.4763,-2.4771,-2.4678,-2.4677,-2.4677,-2.4677,0,-2.4446,-2.4475,-2.4499,-2.4529,-2.4547,-2.4579,-2.4586,-2.4605,-2.4603,-2.4611,-2.465,-2.4665,-2.4692,-2.4703,-2.4701,-2.475,-2.4743,-2.4731,-2.4709,-2.4753,-2.4772,-2.478,-2.468,-2.468,-2.4679,-2.4679,0,0,-2.4505,-2.4537,-2.4546,-2.456,-2.4585,-2.4607,-2.4639,-2.4667,-2.4684,-2.4703,-2.4731,-2.4768,-2.4758,-2.4773,-2.4773,-2.4795,-2.4841,-2.4781,-2.4781,-2.4793,-2.4897,-2.4907,-2.4916,-2.4836,-2.4837,-2.4838,-2.4896,0,-2.4557,-2.4615,-2.4619,-2.4671,-2.4699,-2.4693,-2.4721,-2.4739,-2.4747,-2.4771,-2.4779,-2.4806,-2.479,-2.4799,-2.4821,-2.4831,-2.4862,-2.4826,-2.4862,-2.4863,-2.4858,-2.4926,-2.4936,-2.4989,-2.4903,-2.4904,-2.4905,0,-2.4625,-2.4649,-2.4705,-2.4727,-2.4739,-2.4764,-2.4791,-2.4814,-2.4835,-2.4839,-2.4857,-2.4854,-2.4888,-2.4864,-2.491,-2.4886,-2.4901,-2.4908,-2.491,-2.4914,-2.4888,-2.4933,-2.5006,-2.5015,-2.4917,-2.4916,-2.4915,0,-2.4665,-2.4711,-2.4751,-2.4763,-2.4789,-2.4808,-2.4819,-2.4839,-2.4856,-2.4879,-2.489,-2.4917,-2.4931,-2.4951,-2.4956,-2.4938,-2.5003,-2.4979,-2.5008,-2.5008,-2.5022,-2.5021,-2.51,-2.503,-2.5029,-2.5029,-2.5029,0,-2.4723,-2.4757,-2.4769,-2.4794,-2.4833,-2.4837,-2.4875,-2.4885,-2.4903,-2.493,-2.4925,-2.4949,-2.4954,-2.4979,-2.4983,-2.5021,-2.5027,-2.5032,-2.5033,-2.5033,-2.5033,-2.5043,-2.504,-2.5031,-2.5031,-2.5031,-2.503,0,-2.4774,-2.4783,-2.4827,-2.4849,-2.4856,-2.4884,-2.4903,-2.4926,-2.4934,-2.4968,-2.4976,-2.4988,-2.5018,-2.5025,-2.506,-2.5062,-2.5109,-2.5105,-2.5102,-2.5102,-2.5131,-2.5129,-2.522,-2.5233,-2.5153,-2.5154,-2.5154,0,-2.4811,-2.4838,-2.4864,-2.4882,-2.4895,-2.4924,-2.4942,-2.4947,-2.4966,-2.4993,-2.5014,-2.5044,-2.5068,-2.5117,-2.5128,-2.5155,-2.5153,-2.5183,-2.5157,-2.5157,-2.5155,-2.5154,-2.5158,-2.5189,-2.5189,-2.519,-2.5191,0,-2.4876,-2.488,-2.4907,-2.4936,-2.4958,-2.4981,-2.5003,-2.5018,-2.5026,-2.5047,-2.5079,-2.5098,-2.5136,-2.5166,-2.5193,-2.5205,-2.52,-2.5199,-2.5207,-2.5208,-2.5206,-2.5209,-2.5117,-2.5197,-2.5196,-2.5196,-2.5195,-2.5195,-2.4922,-2.4946,-2.4969,-2.5,-2.5017,-2.5038,-2.5062,-2.5074,-2.5101,-2.5133,-2.5134,-2.5169,-2.519,-2.5227,-2.524,-2.5267,-2.5258,-2.5269,-2.5273,-2.5276,-2.5279,-2.5201,-2.5272,-2.5272,-2.5272,-2.5272,-2.5271,0,-2.4988,-2.5003,-2.5031,-2.5063,-2.5087,-2.5081,-2.5105,-2.5126,-2.5157,-2.5178,-2.5203,-2.524,-2.527,-2.5284,-2.5313,-2.5332,-2.5331,-2.534,-2.5339,-2.5342,-2.5285,-2.5276,-2.5341,-2.5341,-2.5341,-2.5341,-2.5341,-2.5341,-2.5025,-2.5067,-2.5074,-2.5124,-2.5138,-2.5174,-2.5189,-2.5208,-2.5225,-2.5267,-2.5292,-2.5302,-2.532,-2.5351,-2.5378,-2.5382,-2.5393,-2.5404,-2.5406,-2.5353,-2.5346,-2.5339,-2.5331,-2.5406,-2.5406,-2.5461,-2.5462,-2.5462]}]]